Kalispell, MT

9:07 PM MDT on July 21, 2017 (GMT -0600)
Glacier Park International

Weather History for KGPI - February, 2012

Change the Weather History Date:

Sunday, February 19, 2012

  Actual Average Record
Temperature  
Mean Temperature 31 °F 28 °F  
Max Temperature 33 °F 37 °F 53 °F (1930)
Min Temperature 29 °F 18 °F -6 °F (2006)
Degree Days  
Heating Degree Days 34 37  
Month to date heating degree days 687 733  
Since 1 July heating degree days 5096 5524  
Cooling Degree Days 0 0  
Month to date cooling degree days 0 0  
Year to date cooling degree days 0 0  
Moisture  
Dew Point 28 °F    
Average Humidity 82    
Maximum Humidity 92    
Minimum Humidity 72    
Precipitation  
Precipitation 0.10 in 0.04 in 0.44 in (1982)
Month to date precipitation 0.51 0.65  
Year to date precipitation 1.88 1.98  
Snow  
Snow 0.50 in - - ()
Month to date snowfall 6.9  
Year to date snowfall 18.6  
Since 1 July snowfall 24.9  
Snow Depth 1.00 in    
Sea Level Pressure  
Sea Level Pressure 29.86 in    
Wind  
Wind Speed 8 mph (SSE)    
Max Wind Speed 16 mph    
Max Gust Speed 20 mph    
Visibility 6 miles    
Events Fog , Snow    
T = Trace of Precipitation, MM = Missing Value Source: NWS Daily Summary

Daily Weather History Graph

Daily Weather History Graph

Search for Another Location

Airport or City:

Trip Planner

Search our weather history database for the weather conditions in past years. The results will help you decide how hot, cold, wet, or windy it might be!

Date:

Astronomy

Feb. 19, 2012 Rise Set
Actual Time 7:37 AM MST 6:04 PM MST
Civil Twilight 7:05 AM MST 6:36 PM MST
Nautical Twilight 6:29 AM MST 7:13 PM MST
Astronomical Twilight 5:53 AM MST 7:49 PM MST
Moon 6:08 AM MST (2/19) 4:04 PM MST (2/19)
Length of Visible Light 11h 30m
Length of Day
10h 27m
Waning Crescent, 5% of the Moon is Illuminated
Feb 19
Waning Crescent
Feb 21
New
Feb 29
First Quarter
Mar 8
Full
Mar 14
Last Quarter

Hourly Weather History & Observations

Time (MST) Temp. Windchill Dew Point Humidity Pressure Visibility Wind Dir Wind Speed Gust Speed Precip Events Conditions
12:55 AM 32.0 °F 24.8 °F 24.1 °F 73% 29.93 in 10.0 mi SSE 8.1 mph - N/A   Overcast
1:55 AM 30.9 °F 25.2 °F 24.1 °F 76% 29.92 in 10.0 mi SSW 5.8 mph - N/A   Overcast
2:55 AM 30.9 °F 27.5 °F 25.0 °F 79% 29.90 in 10.0 mi South 3.5 mph - N/A   Overcast
3:55 AM 30.9 °F 27.5 °F 24.1 °F 76% 29.89 in 10.0 mi South 3.5 mph - N/A   Overcast
4:55 AM 30.9 °F 24.3 °F 25.0 °F 79% 29.89 in 9.0 mi South 6.9 mph - 0.00 in Snow Light Snow
5:38 AM 30.2 °F 21.9 °F 26.6 °F 86% 29.82 in 2.5 mi SSE 9.2 mph - N/A Snow Light Snow
5:55 AM 30.0 °F 21.7 °F 27.0 °F 88% 29.89 in 6.0 mi SSE 9.2 mph - 0.00 in Snow Light Snow
6:11 AM 30.2 °F 21.3 °F 26.6 °F 86% 29.81 in 8.0 mi SSE 10.4 mph - 0.00 in Snow Light Snow
6:55 AM 30.2 °F 21.3 °F 26.6 °F 86% 29.81 in 9.0 mi SSE 10.4 mph - N/A   Overcast
7:15 AM 30.2 °F 22.6 °F 26.6 °F 86% 29.81 in 1.8 mi SSE 8.1 mph - 0.00 in Snow Light Snow
7:27 AM 30.2 °F 23.4 °F 26.6 °F 86% 29.81 in 1.2 mi SSE 6.9 mph - 0.01 in Snow Light Snow
7:42 AM 30.2 °F 21.3 °F 26.6 °F 86% 29.81 in 1.8 mi SSE 10.4 mph - 0.01 in Snow Light Snow
7:50 AM 30.2 °F 21.3 °F 26.6 °F 86% 29.81 in 0.5 mi SSE 10.4 mph - 0.01 in Fog , Snow Light Snow
7:55 AM 30.0 °F 21.7 °F 27.0 °F 88% 29.89 in 0.5 mi SSE 9.2 mph - 0.01 in Fog , Snow Light Snow
8:45 AM 30.2 °F 21.3 °F 28.4 °F 93% 29.82 in 0.5 mi SSE 10.4 mph - 0.02 in Fog , Snow Light Snow
8:55 AM 30.0 °F 21.7 °F 28.0 °F 92% 29.90 in 1.2 mi SSE 9.2 mph - 0.02 in Snow Light Snow
9:14 AM 30.2 °F 21.3 °F 28.4 °F 93% 29.82 in 1.5 mi South 10.4 mph - 0.01 in Snow Light Snow
9:35 AM 30.2 °F 20.8 °F 28.4 °F 93% 29.82 in 3.0 mi South 11.5 mph - 0.01 in Snow Light Snow
9:43 AM 30.2 °F 20.2 °F 28.4 °F 93% 29.82 in 7.0 mi SSE 12.7 mph - 0.01 in   Overcast
9:55 AM 30.0 °F 20.5 °F 28.0 °F 92% 29.90 in 10.0 mi SSE 11.5 mph - 0.01 in   Overcast
10:55 AM 32.0 °F 22.5 °F 28.9 °F 88% 29.90 in 10.0 mi SSE 12.7 mph - N/A   Overcast
11:55 AM 32.0 °F 22.5 °F 28.0 °F 85% 29.90 in 10.0 mi SSE 12.7 mph - 0.00 in   Overcast
12:55 PM 32.0 °F 23.6 °F 28.9 °F 88% 29.90 in 2.0 mi SE 10.4 mph - 0.01 in Snow Light Snow
1:49 PM 32.0 °F 23.0 °F 30.2 °F 93% 29.82 in 1.0 mi SE 11.5 mph - 0.01 in Snow Light Snow
1:55 PM 32.0 °F 23.6 °F 30.0 °F 92% 29.89 in 1.0 mi SE 10.4 mph - 0.01 in Snow Light Snow
2:10 PM 32.0 °F 23.6 °F 30.2 °F 93% 29.81 in 0.8 mi SE 10.4 mph - 0.02 in Snow Light Snow
2:42 PM 32.0 °F 24.2 °F 30.2 °F 93% 29.81 in 2.0 mi SSE 9.2 mph - 0.02 in Snow Light Snow
2:55 PM 32.0 °F 24.8 °F 30.0 °F 92% 29.89 in 2.0 mi SE 8.1 mph - 0.02 in Snow Light Snow
3:19 PM 32.0 °F 25.6 °F 30.2 °F 93% 29.82 in 0.2 mi SE 6.9 mph - 0.02 in Fog , Snow Light Snow
3:28 PM 32.0 °F 26.4 °F 30.2 °F 93% 29.82 in 0.8 mi SSE 5.8 mph - 0.02 in Snow Light Snow
3:32 PM 32.0 °F 25.6 °F 30.2 °F 93% 29.81 in 1.5 mi SSE 6.9 mph - 0.02 in Snow Light Snow
3:35 PM 33.8 °F 27.0 °F 32.0 °F 93% 29.81 in 3.0 mi SSE 8.1 mph - 0.02 in Snow Light Snow
3:43 PM 32.0 °F 24.2 °F 30.2 °F 93% 29.81 in 8.0 mi SSE 9.2 mph - 0.02 in Snow Light Snow
3:55 PM 32.0 °F 24.2 °F 30.0 °F 92% 29.89 in 9.0 mi SSE 9.2 mph - 0.02 in   Mostly Cloudy
4:55 PM 33.8 °F 30.8 °F 28.4 °F 81% 29.81 in 10.0 mi SE 3.5 mph - N/A   Overcast
5:55 PM 32.0 °F 24.8 °F 28.9 °F 88% 29.91 in 10.0 mi South 8.1 mph - N/A   Overcast
6:55 PM 32.0 °F 26.4 °F 27.0 °F 82% 29.91 in 10.0 mi SSW 5.8 mph - N/A   Overcast
7:55 PM 30.9 °F 24.3 °F 25.0 °F 79% 29.92 in 10.0 mi South 6.9 mph - N/A   Mostly Cloudy
8:55 PM 32.0 °F 25.6 °F 24.1 °F 73% 29.92 in 10.0 mi South 6.9 mph - N/A   Overcast
9:55 PM 30.9 °F 26.2 °F 25.0 °F 79% 29.92 in 10.0 mi South 4.6 mph - N/A   Overcast
10:55 PM 30.9 °F 22.8 °F 26.1 °F 82% 29.91 in 10.0 mi SSE 9.2 mph - N/A   Overcast
11:55 PM 30.2 °F 23.4 °F 24.8 °F 80% 29.83 in 10.0 mi SSE 6.9 mph - N/A   Overcast